Lugano, Switzerland

3:08 PM CET on February 11, 2016 (GMT +0100)
Lugano

Weather History for LSZA - June, 2013

Change the Weather History Date:

Wednesday, June 12, 2013

  Actual Average Record
Temperature  
Mean Temperature 68 °F -  
Max Temperature 84 °F 74 °F 93 °F (2003)
Min Temperature 53 °F 59 °F 44 °F (2001)
Cooling Degree Days 4    
Growing Degree Days 18 (Base 50)    
Moisture  
Dew Point 50 °F    
Average Humidity 51    
Maximum Humidity 88    
Minimum Humidity 14    
Precipitation  
Precipitation 0.00 in 0.21 in - ()
Sea Level Pressure  
Sea Level Pressure 30.03 in    
Wind  
Wind Speed 3 mph ()    
Max Wind Speed 9 mph    
Max Gust Speed -    
Visibility 6.2 miles    
Events      
Averages and records for this station are not official NWS values.
T = Trace of Precipitation, MM = Missing Value Source: Averaged Metar Reports

Daily Weather History Graph

Daily Weather History Graph

Search for Another Location

Airport or City:

Trip Planner

Search our weather history database for the weather conditions in past years. The results will help you decide how hot, cold, wet, or windy it might be!

Date:

Astronomy

Jun. 12, 2013 Rise Set
Actual Time 5:32 AM CEST 9:15 PM CEST
Civil Twilight 4:54 AM CEST 9:53 PM CEST
Nautical Twilight 4:03 AM CEST 10:45 PM CEST
Astronomical Twilight 2:52 AM CEST 11:56 PM CEST
Moon 9:05 AM CEST (6/12) 11:31 PM CEST (6/12)
Length of Visible Light 16h 59m
Length of Day
15h 42m
Waxing Crescent, 12% of the Moon is Illuminated
Jun 12
Waxing Crescent
Jun 16
First Quarter
Jun 23
Full
Jun 30
Last Quarter
Jul 8
New

Hourly Weather History & Observations

Time (CEST) Temp. Dew Point Humidity Pressure Visibility Wind Dir Wind Speed Gust Speed Precip Events Conditions
12:00 AM 66 °F 56 °F 62% 29.99 in - East 1.2 mph - -  
12:20 AM 64.4 °F 55.4 °F 73% 30.01 in 6.2 mi South 5.8 mph - N/A   Unknown
12:50 AM 62.6 °F 53.6 °F 72% 30.01 in - Variable 1.2 mph - N/A   Clear
1:00 AM 64 °F 56 °F 69% 30.01 in - West 1.2 mph - -  
1:20 AM 60.8 °F 53.6 °F 77% 30.01 in - Variable 2.3 mph - N/A   Clear
1:50 AM 59.0 °F 51.8 °F 77% 30.04 in - Variable 1.2 mph - N/A   Clear
2:20 AM 59.0 °F 51.8 °F 77% 30.04 in - Variable 3.5 mph - N/A   Clear
2:50 AM 59.0 °F 51.8 °F 77% 30.04 in - Variable 2.3 mph - N/A   Clear
3:00 AM 62 °F 49 °F 52% 30.04 in - NNW 2.3 mph - -  
3:20 AM 57.2 °F 51.8 °F 82% 30.04 in - Variable 2.3 mph - N/A   Clear
3:50 AM 57.2 °F 50.0 °F 77% 30.04 in - Variable 2.3 mph - N/A   Clear
4:00 AM 61 °F 49 °F 55% 30.04 in - North 1.2 mph - -  
4:20 AM 55.4 °F 50.0 °F 82% 30.04 in - Variable 1.2 mph - N/A   Clear
4:50 AM 55.4 °F 50.0 °F 82% 30.04 in - Variable 1.2 mph - N/A   Clear
5:20 AM 53.6 °F 50.0 °F 88% 30.04 in - Variable 1.2 mph - N/A   Clear
5:50 AM 53.6 °F 50.0 °F 88% 30.06 in - Variable 1.2 mph - N/A   Clear
6:00 AM 58 °F 46 °F 54% 30.06 in - NNW 2.3 mph - -  
6:20 AM 53.6 °F 50.0 °F 88% 30.06 in - Variable 2.3 mph - N/A   Clear
6:50 AM 55.4 °F 48.2 °F 77% 30.06 in - Variable 2.3 mph - N/A   Clear
7:00 AM 58 °F 47 °F 57% 30.06 in - North 3.5 mph - -  
7:20 AM 57.2 °F 48.2 °F 72% 30.06 in - Variable 2.3 mph - N/A   Clear
7:50 AM 60.8 °F 50.0 °F 68% 30.06 in - Variable 2.3 mph - N/A   Clear
8:20 AM 64.4 °F 50.0 °F 59% 30.06 in - SSE 4.6 mph - N/A   Clear
8:50 AM 68.0 °F 48.2 °F 49% 30.06 in - ESE 3.5 mph - N/A   Clear
9:00 AM 65 °F 51 °F 51% 30.06 in - SE 4.6 mph - -  
9:20 AM 68.0 °F 48.2 °F 49% 30.06 in - South 4.6 mph - N/A   Clear
9:50 AM 69.8 °F 48.2 °F 46% 30.06 in - South 5.8 mph - N/A   Clear
10:00 AM 66 °F 51 °F 48% 30.05 in - SE 8.1 mph - -  
10:20 AM 71.6 °F 50.0 °F 46% 30.06 in - SSE 5.8 mph - N/A   Clear
10:50 AM 73.4 °F 46.4 °F 38% 30.06 in - South 5.8 mph - N/A   Clear
11:20 AM 75.2 °F 48.2 °F 38% 30.06 in - South 5.8 mph - N/A   Clear
11:50 AM 78.8 °F 48.2 °F 34% 30.04 in 6.2 mi South 6.9 mph - N/A   Scattered Clouds
12:00 PM 71 °F 53 °F 43% 30.03 in - SE 5.8 mph - -  
12:20 PM 78.8 °F 46.4 °F 32% 30.04 in 6.2 mi South 5.8 mph - N/A   Scattered Clouds
12:50 PM 78.8 °F 50.0 °F 36% 30.04 in 6.2 mi South 8.1 mph - N/A   Scattered Clouds
1:00 PM 75 °F 47 °F 26% 30.02 in - SSE 3.5 mph - -  
1:20 PM 80.6 °F 44.6 °F 28% 30.04 in 6.2 mi South 6.9 mph - N/A   Scattered Clouds
1:50 PM 82.4 °F 44.6 °F 26% 30.04 in 6.2 mi South 9.2 mph - N/A   Scattered Clouds
2:20 PM 82.4 °F 44.6 °F 26% 30.04 in 6.2 mi South 8.1 mph - N/A   Scattered Clouds
2:50 PM 82.4 °F 42.8 °F 25% 30.04 in 6.2 mi South 5.8 mph - N/A   Partly Cloudy
3:00 PM 80 °F 47 °F 21% 29.99 in - NE 6.9 mph - -  
3:20 PM 82.4 °F 42.8 °F 25% 30.04 in 6.2 mi South 4.6 mph - N/A   Partly Cloudy
3:50 PM 82.4 °F 46.4 °F 28% 30.01 in 6.2 mi NNE 8.1 mph - N/A   Partly Cloudy
4:00 PM 83 °F 50 °F 21% 29.96 in - NE 5.8 mph - -  
4:20 PM 82.4 °F 50.0 °F 32% 30.01 in 6.2 mi North 6.9 mph - N/A   Partly Cloudy
4:50 PM 82.4 °F 46.4 °F 28% 30.01 in 6.2 mi NNW 8.1 mph - N/A   Partly Cloudy
5:20 PM 84.2 °F 46.4 °F 27% 30.01 in - North 6.9 mph - N/A   Clear
5:50 PM 84.2 °F 44.6 °F 25% 30.01 in - NNW 5.8 mph - N/A   Clear
6:00 PM 83 °F 41 °F 14% 29.95 in - North 5.8 mph - -  
6:20 PM 82.4 °F 48.2 °F 30% 29.98 in - North 8.1 mph - N/A   Clear
6:50 PM 82.4 °F 48.2 °F 30% 30.01 in - NW 5.8 mph - N/A   Clear
7:00 PM 79 °F 46 °F 21% 29.96 in - ESE 2.3 mph - -  
7:20 PM 82.4 °F 51.8 °F 35% 30.01 in - Variable 3.5 mph - N/A   Clear
7:50 PM 77.0 °F 51.8 °F 41% 30.01 in - NNW 3.5 mph - N/A   Clear
8:20 PM 75.2 °F 51.8 °F 44% 30.01 in - Variable 2.3 mph - N/A   Clear
8:50 PM 71.6 °F 51.8 °F 50% 30.04 in - Variable 3.5 mph - N/A   Clear
9:00 PM 74 °F 56 °F 44% 30.01 in - South 3.5 mph - -  
9:20 PM 68.0 °F 53.6 °F 60% 30.04 in - North 3.5 mph - N/A   Clear
9:50 PM 68.0 °F 53.6 °F 60% 30.04 in - Variable 2.3 mph - N/A   Clear
10:00 PM 72 °F 54 °F 43% 30.03 in - North 1.2 mph - -  
10:20 PM 66.2 °F 55.4 °F 68% 30.06 in - Variable 2.3 mph - N/A   Clear
10:50 PM 66.2 °F 55.4 °F 68% 30.06 in - Variable 2.3 mph - N/A   Clear
11:20 PM 64.4 °F 55.4 °F 73% 30.09 in - Variable 2.3 mph - N/A   Clear
11:50 PM 64.4 °F 55.4 °F 73% 30.09 in - Variable 1.2 mph - N/A   Clear